Location: Gu�tanj
(46.5431°N, 14.9692°E)
Time: 16:53:23
(UTC+00:00)

SPOT 3 Rocket - Pass Details

Date: 03 March 2021
Orbit: 778 x 795 km, 98.7° (Epoch: 15 April)

Event Time Altitude Azimuth Distance (km) Brightness Sun altitude
Exits shadow 18:38:03 31° 66° (ENE) 1,370 4.4 -19.5°
Maximum altitude 18:38:09 31° 64° (ENE) 1,370 4.4 -19.5°
Drops below altitude 10° 18:42:41 10° 4° (N) 2,374 6.1 -20.2°
Sets 18:45:15 0° 354° (N) 3,309 7.0 -20.7°
